DW4421 Weather Reports


time (UTC)temp
C
wind
direction
speed
KPH
gust
KPH
rain 1hr
cm
rain 24hr
cm
rain mn
cm
humidity
%
barometer
mb
20260504232949 23 338 0.0 3.2 0.00 2.54 0.00 21 1013.6
20260504232445 23 292 0.0 4.8 0.00 2.54 0.00 21 1013.6
20260504231948 24 158 0.0 4.8 0.00 2.54 0.00 21 1013.6
20260504231448 24 22 0.0 4.8 0.00 2.54 0.00 20 1013.6
20260504230948 24 292 0.0 4.8 0.00 2.54 0.00 20 1014.6
20260504230448 25 45 0.0 3.2 0.00 2.54 0.00 18 1014.6
20260504225946 25 158 0.0 4.8 0.00 2.54 0.00 18 1014.6
20260504225445 25 135 0.0 4.8 0.00 2.54 0.00 18 1014.6
20260504225218 25 0 0.0 4.8 0.00 2.54 0.00 15 1014.6
20260504224449 25 45 3.2 4.8 0.00 2.54 0.00 15 1014.6
20260504223946 25 180 1.6 4.8 0.00 2.54 0.00 15 1014.6
20260504223717 25 180 0.0 4.8 0.00 2.54 0.00 15 1014.6
20260504223216 25 180 1.6 4.8 0.00 2.54 0.00 15 1014.6
20260504222449 26 338 1.6 4.8 0.00 2.54 0.00 15 1014.6
20260504221948 26 180 1.6 6.4 0.00 2.54 0.00 15 1014.6
20260504221428 26 0 3.2 9.7 0.00 2.54 0.00 15 1014.6
20260504221200 26 68 3.2 9.7 0.00 2.54 0.00 15 1014.6
20260504221046 26 292 4.8 9.7 0.00 2.54 0.00 12 1014.6
20260504215927 27 22 3.2 8.0 0.00 2.54 0.00 14 1014.6
20260504215429 27 315 3.2 8.0 0.00 2.54 0.00 14 1014.6
20260504215200 27 112 4.8 9.7 0.00 2.54 0.00 14 1014.6
20260504214428 27 22 6.4 9.7 0.00 2.54 0.00 14 1014.6
20260504213910 28 22 3.2 6.4 0.00 2.54 0.00 14 1014.6
20260504213905 27 338 3.2 8.0 0.00 2.54 0.00 14 1014.6
20260504212908 28 180 3.2 6.4 0.00 2.54 0.00 11 1014.6
20260504212309 28 292 3.2 9.7 0.00 2.54 0.00 11 1014.6
20260504211659 28 338 3.2 9.7 0.00 2.54 0.00 14 1014.6
20260504211159 28 338 4.8 6.4 0.00 2.54 0.00 13 1015.6
20260504210655 28 202 1.6 6.4 0.00 2.54 0.00 14 1015.6
20260504210429 28 22 3.2 6.4 0.00 2.54 0.00 14 1015.6
20260504205646 28 292 3.2 6.4 0.00 2.54 0.00 11 1015.6
20260504205144 29 270 1.6 9.7 0.00 2.54 0.00 13 1015.6
20260504204641 28 135 1.6 9.7 0.00 2.54 0.00 11 1015.6
20260504204136 28 90 1.6 4.8 0.00 2.54 0.00 11 1016.6
20260504203626 28 22 1.6 8.0 0.00 2.54 0.00 14 1016.6
20260504203126 28 338 6.4 8.0 0.00 2.54 0.00 11 1016.6
20260504202626 28 45 6.4 8.0 0.00 2.54 0.00 11 1016.6
20260504202127 28 292 1.6 8.0 0.00 2.54 0.00 14 1016.6
20260504201630 28 338 1.6 9.7 0.00 2.54 0.00 14 1016.6
20260504201126 28 22 3.2 9.7 0.00 2.54 0.00 14 1016.6
20260504200626 28 338 3.2 9.7 0.00 2.54 0.00 13 1016.6
20260504200126 28 112 3.2 9.7 0.00 2.54 0.00 14 1016.6
20260504195626 28 338 6.4 9.7 0.00 2.54 0.00 14 1016.6
20260504195126 28 338 3.2 9.7 0.00 2.54 0.00 14 1016.6
20260504194625 28 315 3.2 8.0 0.00 2.54 0.00 11 1016.6
20260504194126 28 158 1.6 6.4 0.00 2.54 0.00 14 1016.6
20260504194057 28 202 1.6 6.4 0.00 2.54 0.00 14 1016.6
20260504193055 27 338 1.6 9.7 0.00 2.54 0.00 14 1016.6
20260504192826 28 180 4.8 9.7 0.00 2.54 0.00 14 1016.6
20260504192058 28 158 4.8 6.4 0.00 2.54 0.00 14 1016.6
20260504191558 28 338 3.2 6.4 0.00 2.54 0.00 14 1016.6
20260504191056 28 338 3.2 8.0 0.00 2.54 0.00 14 1015.6
20260504190555 27 270 3.2 8.0 0.00 2.54 0.00 14 1015.6
20260504190055 27 292 3.2 9.7 0.00 2.54 0.00 14 1015.6
20260504185559 28 112 4.8 9.7 0.00 2.54 0.00 14 1016.6
20260504185038 28 338 4.8 6.4 0.00 2.54 0.00 14 1016.6
20260504184536 28 225 3.2 4.8 0.00 2.54 0.00 16 1016.6
20260504184038 28 0 3.2 8.0 0.00 2.54 0.00 16 1016.6
20260504183539 27 338 3.2 8.0 0.00 2.54 0.00 14 1016.6
20260504183310 28 90 4.8 6.4 0.00 2.54 0.00 16 1016.6
20260504182539 28 45 3.2 8.0 0.00 2.54 0.00 19 1016.6
20260504182031 27 22 6.4 9.7 0.00 2.54 0.00 14 1016.6
20260504181519 28 68 6.4 9.7 0.00 2.54 0.00 16 1016.6
20260504181152 28 338 3.2 4.8 0.00 2.54 0.00 19 1017.7
20260504180418 27 22 3.2 8.0 0.00 2.54 0.00 20 1017.7
20260504175916 27 45 3.2 8.0 0.00 2.54 0.00 20 1017.7
20260504175415 26 158 4.8 6.4 0.00 2.54 0.00 20 1017.7
20260504174916 26 292 1.6 4.8 0.00 2.54 0.00 20 1017.7
20260504174415 26 202 1.6 8.0 0.00 2.54 0.00 21 1017.7
20260504174146 26 158 6.4 8.0 0.00 2.54 0.00 17 1017.7
20260504173416 26 180 3.2 9.7 0.00 2.54 0.00 20 1017.7
20260504172916 26 202 3.2 9.7 2.54 2.54 0.00 21 1017.7
20260504172417 26 338 3.2 8.0 2.54 2.54 0.00 20 1017.7
20260504171916 25 180 3.2 9.7 2.54 2.54 0.00 22 1017.7
20260504171416 26 135 4.8 9.7 2.54 2.54 0.00 21 1017.7
20260504170916 25 202 1.6 8.0 2.54 2.54 0.00 21 1017.7
20260504170414 26 0 4.8 8.0 2.54 2.54 0.00 22 1017.7
20260504150856 21 338 4.8 8.0 0.00 0.00 0.00 32 1018.7
20260504150628 21 158 6.4 8.0 0.00 0.00 0.00 34 1018.7
20260504141255 19 158 3.2 4.8 0.00 0.00 0.00 48 1017.7
20260504140756 18 180 3.2 4.8 0.00 0.00 0.00 52 1018.7
20260504140256 18 202 1.6 3.2 0.00 0.00 0.00 55 1018.7
20260504130254 11 22 0.0 1.6 0.00 0.00 0.00 79 1018.7
20260504120219 8 22 0.0 0.0 0.00 0.00 0.00 76 1017.7
20260504110645 7 45 0.0 0.0 0.00 0.00 0.00 74 1018.7
20260504110146 7 45 0.0 0.0 0.00 0.00 0.00 74 1018.7
20260504100148 7 158 0.0 0.0 0.00 0.00 0.00 72 1018.7
20260504081808 8 158 0.0 0.0 0.00 0.00 0.00 69 1018.7
20260504081501 8 158 0.0 0.0 0.00 0.00 0.00 68 1018.7
20260504081225 8 158 0.0 0.0 0.00 0.00 0.00 69 1018.7
20260504080225 8 158 0.0 0.0 0.00 0.00 0.00 68 1018.7
20260504070105 8 180 0.0 0.0 0.00 0.00 0.00 66 1017.7
20260504050737 10 202 0.0 3.2 0.00 0.00 0.00 57 1019.7
20260504050005 10 202 0.0 0.0 0.00 0.00 0.00 57 1019.7
20260504045504 10 202 0.0 0.0 0.00 0.00 0.00 56 1018.7
20260504045006 10 202 0.0 0.0 0.00 0.00 0.00 56 1018.7
20260504044736 10 202 0.0 1.6 0.00 0.00 0.00 56 1018.7
20260504044005 10 202 0.0 1.6 0.00 0.00 0.00 55 1019.7
20260504043508 10 202 0.0 1.6 0.00 0.00 0.00 55 1019.7
20260504043004 10 202 0.0 0.0 0.00 0.00 0.00 55 1019.7
20260504042425 10 202 0.0 0.0 0.00 0.00 0.00 54 1019.7
20260504041926 10 202 0.0 0.0 0.00 0.00 0.00 54 1019.7
20260504041428 11 202 0.0 0.0 0.00 0.00 0.00 54 1019.7
20260504040926 11 202 0.0 0.0 0.00 0.00 0.00 53 1019.7
20260504040428 11 202 0.0 0.0 0.00 0.00 0.00 52 1019.7
20260504040046 11 202 0.0 0.0 0.00 0.00 0.00 52 1019.7
20260504035314 11 202 0.0 0.0 0.00 0.00 0.00 52 1020.7
20260504034818 11 202 0.0 0.0 0.00 0.00 0.00 52 1020.7
20260504034311 11 202 0.0 0.0 0.00 0.00 0.00 51 1020.7
20260504034041 11 202 0.0 0.0 0.00 0.00 0.00 50 1019.7
20260504033307 11 202 0.0 0.0 0.00 0.00 0.00 50 1019.7
20260504032808 11 202 0.0 0.0 0.00 0.00 0.00 50 1019.7
20260504032305 11 202 0.0 0.0 0.00 0.00 0.00 49 1019.7
20260504032038 11 202 0.0 0.0 0.00 0.00 0.00 49 1019.7
20260504031306 11 202 0.0 0.0 0.00 0.00 0.00 49 1019.7
20260504030807 12 202 0.0 0.0 0.00 0.00 0.00 48 1019.7
20260504030506 12 202 0.0 0.0 0.00 0.00 0.00 47 1019.7
20260504025735 12 202 0.0 0.0 0.00 0.00 0.00 47 1019.7
20260504025506 12 202 0.0 0.0 0.00 0.00 0.00 47 1019.7
20260504024735 12 202 0.0 0.0 0.00 0.00 0.00 47 1019.7
20260504024230 12 202 0.0 0.0 0.00 0.00 0.00 46 1019.7
20260504024002 12 202 0.0 0.0 0.00 0.00 0.00 46 1019.7
20260504023204 12 202 0.0 0.0 0.00 0.00 0.00 46 1019.7
20260504022705 12 202 0.0 0.0 0.00 0.00 0.00 46 1019.7
20260504022204 12 202 0.0 0.0 0.00 0.00 0.00 45 1019.7
20260504021705 13 202 0.0 0.0 0.00 0.00 0.00 45 1019.7
20260504021439 13 202 0.0 0.0 0.00 0.00 0.00 45 1018.7
20260504020704 13 202 0.0 0.0 0.00 0.00 0.00 43 1018.7
20260504020205 13 202 0.0 0.0 0.00 0.00 0.00 44 1018.7
20260504015935 13 202 0.0 0.0 0.00 0.00 0.00 43 1017.7
20260504015206 13 202 0.0 0.0 0.00 0.00 0.00 42 1017.7
20260504014705 13 202 0.0 0.0 0.00 0.00 0.00 41 1017.7
20260504014205 14 202 0.0 0.0 0.00 0.00 0.00 41 1018.7
20260504013705 14 202 0.0 0.0 0.00 0.00 0.00 40 1018.7
20260504013204 14 202 0.0 0.0 0.00 0.00 0.00 40 1018.7
20260504012705 15 202 0.0 0.0 0.00 0.00 0.00 39 1019.7
20260504012435 15 202 0.0 0.0 0.00 0.00 0.00 39 1019.7
20260504011706 15 202 0.0 0.0 0.00 0.00 0.00 38 1019.7
20260504011206 15 202 0.0 0.0 0.00 0.00 0.00 37 1018.7
20260504010706 15 202 0.0 0.0 0.00 0.00 0.00 37 1018.7
20260504010205 16 202 0.0 0.0 0.00 0.00 0.00 37 1018.7
20260504005704 16 202 0.0 0.0 0.00 0.00 0.00 36 1017.7
20260504005440 16 202 0.0 0.0 0.00 0.00 0.00 36 1017.7
20260504004707 16 202 0.0 0.0 0.00 0.00 0.00 35 1017.7
20260504004441 17 202 0.0 0.0 0.00 0.00 0.00 35 1017.7
20260504003630 17 202 0.0 0.0 0.00 0.00 0.00 34 1017.7
20260504003035 17 202 0.0 0.0 0.00 0.00 0.00 34 1017.7
20260504002534 17 202 0.0 0.0 0.00 0.00 0.00 33 1017.7
20260504002034 18 202 0.0 0.0 0.00 0.00 0.00 32 1017.7
20260504001511 18 202 0.0 0.0 0.00 0.00 0.00 31 1017.7
20260504001504 18 202 0.0 1.6 0.00 0.00 0.00 32 1017.7
20260504000504 18 202 0.0 0.0 0.00 0.00 0.00 29 1017.7
20260504000005 19 202 0.0 0.0 0.00 0.00 0.00 28 1017.7
20260503235736 19 202 0.0 0.0 0.00 0.00 0.00 27 1017.7
20260503235007 19 202 0.0 0.0 0.00 0.00 0.00 25 1017.7
20260503234715 20 202 0.0 0.0 0.00 0.00 0.00 24 1017.7
20260503233946 20 202 0.0 0.0 0.00 0.00 0.00 23 1017.7
20260503233446 20 202 0.0 3.2 0.00 0.00 0.00 23 1017.7